DMSP 5D-2 F13 DEB, 42325

Orbit data source: Space-Track

DMSP 5D-2 F13 DEB, 42325 is space debris in SSO originally from a launch on Fri, 24 Mar 1995 UTC launched from the Air Force Western Test Range (AFWTR). Debris objects in space refer to the collection of defunct objects orbiting the Earth. Examples of debris include non-operational satellites, rocket bodies, and fragments generated from explosions, collisions, or faulty payload assembly.

Loading next visibility...
Identifier
42325, 1995-015JT
Orbit
SSO
Country
Flag of USUS
Related business
Manufacturer
Unknown
Mission
Spacecraft
Bus & Motor
Unknown
Mass
Unknown
Launch date (UTC)
1995-03-24 (31 years ago)
Launch vehicle
Unknown
Launch site
Air Force Western Test Range (AFWTR)
Object type
Payload
Rocket body
Debris
Shape & HBR
Unknown shape, 0.1 m
Radar Cross Section
Small (<0.1 m²)

Expand to show TLE details & history
Last TLE update: 1 day ago

TLE from 1 day ago
0 DMSP 5D-2 F13 DEB
1 42325U 95015JT  26072.85946741  .00007060  00000-0  21485-2 0  9992
2 42325  98.7220 117.9865 0011171  80.6782 279.5669 14.42321157539028
Epoch: 2026-03-13T20:37Z
TLE epoch observation values (Epoch: 2026-03-13T20:37:37.984Z)
Latitude
-0.00006°
Longitude
-2.91071°
Altitude
752.469 km
Speed
7.479 km/s
True Right ascension
07h 51m 56s
True Declination
0° 00' 00"
Sunlit
Object was in full shadow at epoch
Visualization orbit readout
Latitude
Unknown
Longitude
Unknown
Altitude
Unknown
Speed
Unknown
Apparent Right ascension
Unknown
Apparent Declination
Unknown
Sunlit
N/A
Visualization observer readout
Local Sidereal Time
02:15:54
Azimuth
Unknown
Elevation
Unknown
Doppler factor
Unknown
Orbital elements
Apogee altitude
755.93 km
Perigee altitude
740.008 km
Semi-major axis
7,126.106 km
Eccentricity
0.00112
Inclination
98.722°
RAAN
117.9865°
Arg. of periapsis
80.6782°
True anomaly
279.44064°
Mean anomaly
279.5669°
Eccentric anomaly
279.50377°
Mean motion
3.60799 °/min
Orbital period
99.78 mins
BSTAR
0.0021485

Documentation

Showing up to 5 results
|